Starlink 31993

operational
NORAD ID: 59961 Int'l Des: 2024-107 Owner: SPXS Country: US Constellation: starlink
LEOCIRCULAR

About Starlink 31993

Description loading...

Live Position

Loading 3D Globe...

Upcoming Passes

Altitude History

Altitude vs Time

uPlot chart will show altitude changes over time

Two-Line Element Set

1 59961U 24107S 26093.88438586 -.00001255 00000-0 -30271-4 0 9996
2 59961 53.1610 308.5217 0001005 94.7635 265.3480 15.30186731103595
Epoch: Apr 3, 2026 • Age: 7 hours

Current Status

Altitude 475.2 km
Velocity 7.63 km/s
Sub-Earth Point 9.75°N, 136.07°W
Launch Date Jun 5, 2024
Age 1.8 years
Type internet

Technical Details

Classification Payload
Mass 730.00 kg
Dry Mass 700.00 kg
Total Mass 730.00 kg
Length 0.30 m
Diameter 4.10 m
Span 29.00 m
Shape Box + pan
Manufacturer SPXS
Bus Type Starlink V2M
Phase Status In Orbit
Owner/State SPXS/US

Large Constellations

Loading constellations...